Location: Unspecified
(38.9820°N, 94.4650°W)
Time: 17:47:42
(UTC-05:00)

Okean 3 - Visible Passes

Search period start: 25 July 2017 00:00
Search period end: 04 August 2017 00:00
Orbit: 576 x 603 km, 82.5° (Epoch: 25 July)

Date Brightness Start Highest point End Pass type
(mag) Time Alt. Az. Time Alt. Az. Time Alt. Az.
25 Jul 5.9 00:30:14 10° NW 00:32:06 16° WNW 00:32:06 16° WNW visible
25 Jul 3.8 23:00:06 10° N 23:03:50 51° ENE 23:03:50 51° ENE visible
26 Jul 6.3 00:40:03 10° WNW 00:40:23 10° WNW 00:40:23 10° WNW visible
26 Jul 3.4 23:08:15 10° N 23:12:09 75° NNE 23:12:09 75° NNE visible
27 Jul 3.8 23:16:32 10° NNW 23:20:28 61° WNW 23:20:28 61° WNW visible
28 Jul 5.3 21:49:00 10° NE 21:51:25 15° ENE 21:52:15 14° E visible
28 Jul 4.5 23:24:56 10° NNW 23:28:49 39° W 23:28:49 39° W visible
29 Jul 4.8 21:56:31 10° NNE 21:59:48 22° ENE 22:00:37 21° E visible
29 Jul 5.2 23:33:31 10° NNW 23:36:59 26° W 23:37:10 25° W visible
30 Jul 4.3 22:04:20 10° NNE 22:08:07 33° ENE 22:09:00 30° ESE visible
30 Jul 5.7 23:42:21 10° NW 23:45:05 17° W 23:45:33 17° W visible
31 Jul 3.7 22:12:19 10° N 22:16:25 50° E 22:17:24 41° ESE visible
31 Jul 6.2 23:51:55 10° WNW 23:53:09 11° W 23:53:57 11° W visible
01 Aug 3.3 22:20:28 10° N 22:24:40 80° E 22:25:49 47° SSE visible
02 Aug 3.7 22:28:43 10° NNW 22:32:53 65° W 22:34:17 39° SSW visible
03 Aug 5.4 21:01:18 10° NE 21:03:37 14° ENE 21:05:56 10° ESE visible
03 Aug 4.5 22:37:07 10° NNW 22:41:04 41° W 22:42:45 27° SW visible
